Regional Weather Roundup
Issued by NWS

Home | Current Version | Previous Version | Text Only | Print | Product List | Glossary On
Versions: 1 2 3 4 5 6 7 8 9 10 11 12 13 14 15 16 17 18 19 20 21 22 23 24 25 26 27 28 29 30 31 32 33 34 35 36 37 38 39 40 41 42 43 44 45 46 47 48 49 50
000
ASUS43 KLOT 010808
RWRIL

ILLINOIS REGIONAL WEATHER ROUNDUP
NATIONAL WEATHER SERVICE CHICAGO/ROMEOVILLE IL
200 AM CST WED MAR 01 2017

NOTE: "FAIR" INDICATES FEW OR NO CLOUDS BELOW 12,000 FEET WITH NO
SIGNIFICANT WEATHER AND/OR OBSTRUCTIONS TO VISIBILITY.

* THESE STATIONS ARE NOT UNDER NWS QUALITY CONTROL. THEY ALSO MAY NOT
  REPORT WEATHER SUCH AS PRECIPITATION OR FOG.

ILZ001-002-007-009-015-016-024-010900-
NORTHWEST ILLINOIS

CITY           SKY/WX    TMP DP  RH WIND       PRES   REMARKS
MOLINE         CLOUDY    50  47  89 W13       29.51R FOG
STERLING*      FOG       48  47  96 W3        29.47F VSB 1/2
$$

ILZ003-004-008-010-011-017-018-010900-
NORTH CENTRAL ILLINOIS

CITY           SKY/WX    TMP DP  RH WIND       PRES   REMARKS
ROCKFORD       MOCLDY    48  46  93 N12       29.49R FOG
FREEPORT*      FOG       44  44  99 N5        29.49F VSB 1
ROCHELLE*      CLOUDY    46  46  99 S5        29.46F FOG
DE KALB*       CLOUDY    47  47  98 S7        29.46F FOG
PERU*          CLOUDY    50  49  94 W7        29.46F
$$

ILZ005-006-012>014-019>023-010900-
NORTHEAST ILLINOIS

CITY           SKY/WX    TMP DP  RH WIND       PRES   REMARKS
CHICAGO-OHARE  CLOUDY    53  51  93 SW6       29.46S
CHICAGO-MIDWAY CLOUDY    53  50  89 SW7       29.46F
AURORA         CLOUDY    51  49  92 S6        29.46F
LANSING*       CLOUDY    53  53 100 S10       29.46F
JOLIET*        CLOUDY    55  53  93 CALM      29.46F
WAUKEGAN       CLOUDY    40  40 100 NE8       29.44F FOG
DUPAGE AIRPORT CLOUDY    50  48  93 S5        29.45F
KANKAKEE*      CLOUDY    52  51  97 SW9       29.49F
WHEELING       CLOUDY    52  51  97 E3        29.46F FOG
MORRIS*        CLOUDY    52  50  94 SW3       29.45F
ROMEOVILLE*    CLOUDY    52  52 100 W5        29.47F
NORTHERLY ISL    N/A     53  51  93 S5          N/A
$$

LMZ740>746-010900-
SOUTHERN LAKE MICHIGAN

STATION/POSITION SKY/WX   TEMP    WIND        PRES    VSBY  WAVE
                          AIR SEA DIR/SP/G                  HT/PER
                          (F)     (DEG/KT/KT) (MB)    (MI)  (FT/S)
HARRISON CRIB              54     220/  9/ 10   N/A
BURNHAM HARBOR             53     210/  3/  6   N/A
CALUMET HARBOR             52     210/  5/  6  997.8R
BURNS HARBOR               52     180/  9/ 11  998.6S
MICHIGAN CITY              52     150/ 11/ 14   N/A
$$

ILZ025>027-034>036-040-047-049-050-058-095>099-010900-
WEST-CENTRAL ILLINOIS

CITY           SKY/WX    TMP DP  RH WIND       PRES   REMARKS
QUINCY         LGT RAIN  53  50  89 W12       29.57R
GALESBURG*     MOCLDY    51  48  89 W13G22    29.53R
MACOMB*        CLOUDY    52  50  93 W16       29.56S
JACKSONVILLE*  RAIN      56  50  81 SW15      29.56R
PITTSFIELD*    CLOUDY    55  51  88 W12       29.60R
$$

ILZ028>032-037-038-041>044-048-051>054-059>061-010900-
CENTRAL ILLINOIS

CITY           SKY/WX    TMP DP  RH WIND       PRES   REMARKS
PONTIAC        CLOUDY    56  54  93 W9        29.48F
BLOOMINGTON    CLOUDY    55  50  83 SW15      29.48F
DECATUR        LGT RAIN  57  49  74 W8        29.51F
PEORIA         CLOUDY    55  52  89 W10       29.50F
LACON*         CLOUDY    55  52  90 W6        29.47F
LINCOLN*       MOCLDY    57  51  80 SW3       29.49F
SPRINGFIELD    CLOUDY    57  50  77 SW8       29.53F
TAYLORVILLE    CLOUDY    54  51  88 W3        29.53F
$$

ILZ033-039-045-046-055>057-062-063-010900-
EAST-CENTRAL ILLINOIS

CITY           SKY/WX    TMP DP  RH WIND       PRES   REMARKS
CHAMPAIGN      TSTM      56  50  80 SW12      29.54F
RANTOUL*       CLOUDY    57  53  86 SW13      29.52F
MATTOON        RAIN      54  53  97 NW16G25   29.57F FOG
PARIS*         LGT RAIN  54  53  96 W13G21    29.59R
$$

ILZ079-100>102-010900-
SOUTHWEST ILLINOIS

CITY           SKY/WX    TMP DP  RH WIND       PRES   REMARKS
ALTON          TSTM      53  49  87 W17G28    29.61R
BELLEVILLE     CLOUDY    63  52  67 W41G52    29.55R
CAHOKIA*       CLOUDY    64  47  53 N24G31    29.59R
SPARTA*        CLOUDY    69  62  79 S15G26    29.58S
$$

ILZ064>066-069>071-074>076-080>082-084>086-088>090-092>094-010900-
SOUTH-CENTRAL ILLINOIS

CITY           SKY/WX    TMP DP  RH WIND       PRES   REMARKS
CARBONDALE     CLOUDY    69  64  84 SW25G41   29.60F
CAIRO*         CLOUDY    69  63  80 S23G31    29.65F
EFFINGHAM*     LGT RAIN  58  52  80 W21G29    29.61R
MARION         CLOUDY    70  66  88 S25G43    29.61F
MT. VERNON     CLOUDY    68  63  84 SW23      29.57F
CENTRALIA*     CLOUDY    68  64  86 S22G29    29.54F
SALEM*         CLOUDY    69  63  80 S23G32    29.54F
METROPOLIS*    CLOUDY    69  63  80 S17G25    29.66F
$$

ILZ067-068-072-073-078-083-087-091-010900-
SOUTHEAST ILLINOIS

CITY           SKY/WX    TMP DP  RH WIND       PRES   REMARKS
LAWRENCEVILLE  CLOUDY    66  61  84 SW23      29.56F
FLORA*         CLOUDY    69  63  83 S20G29    29.55F
FAIRFIELD*     CLOUDY    69  63  81 SW10G22   29.57F
HARRISBURG*    CLOUDY    70  64  80 SW22G32   29.62F
ROBINSON*      CLOUDY    66  61  82 SW22G30   29.56F
$$

ABBREVIATIONS USED IN REMARKS
   TC - TEMPERATURE IN CELSIUS
  WCI - WIND CHILL INDEX
   HX - HEAT INDEX
  VSB - VISIBILITY
$$





USA.gov is the U.S. government's official web portal to all federal, state and local government web resources and services.